"Sample Date","Sample Time","Sensor Name","Sample Value","Units","Flow Rate","Sample Interval","Sample Volume","Laser Status","Number Channels","Micron Size 0","Counts/Channel 0","Micron Size 1","Counts/Channel 1","Micron Size 2","Counts/Channel 2","Micron Size 3","Counts/Channel 3","Micron Size 4","Counts/Channel 4","Micron Size 5","Counts/Channel 5","Micron Size 6","Counts/Channel 6","Micron Size 7","Counts/Channel 7","Micron Size 8","Counts/Channel 8","Micron Size 9","Counts/Channel 9","Micron Size 10","Counts/Channel 10","Micron Size 11","Counts/Channel 11","Micron Size 12","Counts/Channel 12","Micron Size 13","Counts/Channel 13","Micron Size 14","Counts/Channel 14","Micron Size 15","Counts/Channel 15","Micron Size 16","Counts/Channel 16","Micron Size 17","Counts/Channel 17","Micron Size 18","Counts/Channel 18","Micron Size 19","Counts/Channel 19","Micron Size 20","Counts/Channel 20","Micron Size 21","Counts/Channel 21","Micron Size 22","Counts/Channel 22","Micron Size 23","Counts/Channel 23","Micron Size 24","Counts/Channel 24","Micron Size 25","Counts/Channel 25","Micron Size 26","Counts/Channel 26","Micron Size 27","Counts/Channel 27","Micron Size 28","Counts/Channel 28","Micron Size 29","Counts/Channel 29","Micron Size 30","Counts/Channel 30","Micron Size 31","Counts/Channel 31"
"07/08/06","10:00:02","AMMA06",34566.000,"cc",28329.457,6.00,2832.946,1,6,0.100,20193.000,0.200,11575.000,0.300,2166.000,0.500,414.000,1.000,217.000,5.000,1.000
"07/08/06","10:00:08","AMMA06",34419.000,"cc",28291.695,6.00,2829.170,1,6,0.100,20072.000,0.200,11535.000,0.300,2144.000,0.500,430.000,1.000,238.000,5.000,0
"07/08/06","10:00:14","AMMA06",34007.000,"cc",28333.393,6.00,2833.339,1,6,0.100,19927.000,0.200,11357.000,0.300,2062.000,0.500,438.000,1.000,223.000,5.000,0
"07/08/06","10:00:20","AMMA06",34239.000,"cc",28295.242,6.00,2829.524,1,6,0.100,20124.000,0.200,11471.000,0.300,2000.000,0.500,403.000,1.000,241.000,5.000,0
"07/08/06","10:00:26","AMMA06",33898.000,"cc",28340.830,6.00,2834.083,1,6,0.100,20004.000,0.200,11380.000,0.300,1939.000,0.500,365.000,1.000,210.000,5.000,0
"07/08/06","10:00:32","AMMA06",34083.000,"cc",28301.316,6.00,2830.132,1,6,0.100,19883.000,0.200,11454.000,0.300,2023.000,0.500,446.000,1.000,277.000,5.000,0
"07/08/06","10:00:38","AMMA06",34915.000,"cc",28286.461,6.00,2828.646,1,6,0.100,20345.000,0.200,11460.000,0.300,2316.000,0.500,505.000,1.000,289.000,5.000,0
"07/08/06","10:00:44","AMMA06",34371.000,"cc",28293.252,6.00,2829.325,1,6,0.100,20256.000,0.200,11343.000,0.300,2073.000,0.500,443.000,1.000,256.000,5.000,0
"07/08/06","10:00:50","AMMA06",34046.000,"cc",28358.184,6.00,2835.819,1,6,0.100,20171.000,0.200,11250.000,0.300,2029.000,0.500,383.000,1.000,213.000,5.000,0
"07/08/06","10:00:56","AMMA06",35046.000,"cc",28317.279,6.00,2831.728,1,6,0.100,20481.000,0.200,11533.000,0.300,2235.000,0.500,544.000,1.000,253.000,5.000,0
"07/08/06","10:01:02","AMMA06",34465.000,"cc",28288.824,6.00,2828.883,1,6,0.100,20464.000,0.200,11282.000,0.300,2061.000,0.500,426.000,1.000,232.000,5.000,0
"07/08/06","10:01:08","AMMA06",33973.000,"cc",28357.818,6.00,2835.782,1,6,0.100,20033.000,0.200,11361.000,0.300,1965.000,0.500,386.000,1.000,228.000,5.000,0
"07/08/06","10:01:14","AMMA06",34403.000,"cc",28256.508,6.00,2825.651,1,6,0.100,20498.000,0.200,11299.000,0.300,2031.000,0.500,387.000,1.000,188.000,5.000,0
"07/08/06","10:01:20","AMMA06",33709.000,"cc",28326.928,6.00,2832.693,1,6,0.100,19931.000,0.200,11236.000,0.300,1969.000,0.500,362.000,1.000,211.000,5.000,0
"07/08/06","10:01:26","AMMA06",33912.000,"cc",28320.918,6.00,2832.092,1,6,0.100,20224.000,0.200,11154.000,0.300,1920.000,0.500,400.000,1.000,214.000,5.000,0
"07/08/06","10:01:32","AMMA06",33940.000,"cc",28363.533,6.00,2836.354,1,6,0.100,20011.000,0.200,11321.000,0.300,2026.000,0.500,375.000,1.000,207.000,5.000,0
"07/08/06","10:01:38","AMMA06",34011.000,"cc",28308.770,6.00,2830.877,1,6,0.100,20174.000,0.200,11287.000,0.300,1930.000,0.500,371.000,1.000,249.000,5.000,0
"07/08/06","10:01:44","AMMA06",33949.000,"cc",28281.729,6.00,2828.173,1,6,0.100,20232.000,0.200,11254.000,0.300,1894.000,0.500,365.000,1.000,204.000,5.000,0
"07/08/06","10:01:50","AMMA06",33723.000,"cc",28376.977,6.00,2837.698,1,6,0.100,20065.000,0.200,11109.000,0.300,1956.000,0.500,380.000,1.000,213.000,5.000,0
"07/08/06","10:01:56","AMMA06",33548.000,"cc",28306.856,6.00,2830.686,1,6,0.100,19910.000,0.200,11072.000,0.300,1992.000,0.500,364.000,1.000,210.000,5.000,0
"07/08/06","10:02:02","AMMA06",34270.000,"cc",28300.586,6.00,2830.059,1,6,0.100,20358.000,0.200,11274.000,0.300,1962.000,0.500,435.000,1.000,241.000,5.000,0
"07/08/06","10:02:08","AMMA06",34186.000,"cc",28330.516,6.00,2833.052,1,6,0.100,20331.000,0.200,11235.000,0.300,1983.000,0.500,396.000,1.000,241.000,5.000,0
"07/08/06","10:02:14","AMMA06",34017.000,"cc",28348.943,6.00,2834.895,1,6,0.100,20368.000,0.200,11112.000,0.300,1924.000,0.500,396.000,1.000,217.000,5.000,0
"07/08/06","10:02:20","AMMA06",33930.000,"cc",28338.139,6.00,2833.814,1,6,0.100,20178.000,0.200,11200.000,0.300,1906.000,0.500,428.000,1.000,218.000,5.000,0
"07/08/06","10:02:26","AMMA06",34346.000,"cc",28302.578,6.00,2830.258,1,6,0.100,20301.000,0.200,11297.000,0.300,2067.000,0.500,431.000,1.000,250.000,5.000,0
"07/08/06","10:02:32","AMMA06",33936.000,"cc",28309.041,6.00,2830.904,1,6,0.100,20235.000,0.200,11133.000,0.300,1974.000,0.500,380.000,1.000,214.000,5.000,0
"07/08/06","10:02:38","AMMA06",35083.000,"cc",28274.857,6.00,2827.486,1,6,0.100,20347.000,0.200,11574.000,0.300,2308.000,0.500,552.000,1.000,302.000,5.000,0
"07/08/06","10:02:44","AMMA06",36222.000,"cc",28343.520,6.00,2834.352,1,6,0.100,21051.000,0.200,11735.000,0.300,2449.000,0.500,659.000,1.000,328.000,5.000,0
"07/08/06","10:02:50","AMMA06",35621.000,"cc",28326.436,6.00,2832.644,1,6,0.100,20970.000,0.200,11488.000,0.300,2254.000,0.500,595.000,1.000,314.000,5.000,0
"07/08/06","10:02:56","AMMA06",35046.000,"cc",28270.434,6.00,2827.044,1,6,0.100,20830.000,0.200,11175.000,0.300,2223.000,0.500,529.000,1.000,289.000,5.000,0
"07/08/06","10:03:02","AMMA06",34670.000,"cc",28301.397,6.00,2830.140,1,6,0.100,20371.000,0.200,11386.000,0.300,2200.000,0.500,476.000,1.000,237.000,5.000,0
"07/08/06","10:03:08","AMMA06",34843.000,"cc",28382.723,6.00,2838.273,1,6,0.100,20611.000,0.200,11315.000,0.300,2159.000,0.500,488.000,1.000,270.000,5.000,0
"07/08/06","10:03:14","AMMA06",34371.000,"cc",28282.455,6.00,2828.246,1,6,0.100,20325.000,0.200,11343.000,0.300,2051.000,0.500,440.000,1.000,212.000,5.000,0
"07/08/06","10:03:20","AMMA06",34309.000,"cc",28356.783,6.00,2835.679,1,6,0.100,20334.000,0.200,11300.000,0.300,2015.000,0.500,403.000,1.000,257.000,5.000,0
"07/08/06","10:03:26","AMMA06",34114.000,"cc",28304.928,6.00,2830.493,1,6,0.100,20076.000,0.200,11237.000,0.300,2096.000,0.500,461.000,1.000,244.000,5.000,0
"07/08/06","10:03:32","AMMA06",34535.000,"cc",28358.131,6.00,2835.813,1,6,0.100,20476.000,0.200,11287.000,0.300,2071.000,0.500,447.000,1.000,254.000,5.000,0
"07/08/06","10:03:38","AMMA06",34919.000,"cc",28319.854,6.00,2831.986,1,6,0.100,20670.000,0.200,11277.000,0.300,2205.000,0.500,529.000,1.000,238.000,5.000,0
"07/08/06","10:03:44","AMMA06",34248.000,"cc",28262.887,6.00,2826.289,1,6,0.100,20265.000,0.200,11321.000,0.300,2044.000,0.500,423.000,1.000,195.000,5.000,0
"07/08/06","10:03:50","AMMA06",35013.000,"cc",28303.270,6.00,2830.327,1,6,0.100,20498.000,0.200,11504.000,0.300,2246.000,0.500,510.000,1.000,255.000,5.000,0
"07/08/06","10:03:56","AMMA06",34223.000,"cc",28335.602,6.00,2833.560,1,6,0.100,20266.000,0.200,11260.000,0.300,2054.000,0.500,418.000,1.000,225.000,5.000,0
"07/08/06","10:04:02","AMMA06",34310.000,"cc",28350.740,6.00,2835.074,1,6,0.100,20330.000,0.200,11267.000,0.300,2058.000,0.500,385.000,1.000,270.000,5.000,0
"07/08/06","10:04:08","AMMA06",34405.000,"cc",28302.557,6.00,2830.256,1,6,0.100,20238.000,0.200,11355.000,0.300,2094.000,0.500,458.000,1.000,260.000,5.000,0
"07/08/06","10:04:14","AMMA06",34647.000,"cc",28333.383,6.00,2833.338,1,6,0.100,20254.000,0.200,11533.000,0.300,2123.000,0.500,485.000,1.000,252.000,5.000,0
"07/08/06","10:04:20","AMMA06",34041.000,"cc",28344.225,6.00,2834.423,1,6,0.100,19865.000,0.200,11444.000,0.300,2046.000,0.500,438.000,1.000,248.000,5.000,0
"07/08/06","10:04:26","AMMA06",34016.000,"cc",28294.994,6.00,2829.500,1,6,0.100,20113.000,0.200,11289.000,0.300,1981.000,0.500,400.000,1.000,233.000,5.000,0
"07/08/06","10:04:32","AMMA06",34041.000,"cc",28297.344,6.00,2829.735,1,6,0.100,19849.000,0.200,11602.000,0.300,1966.000,0.500,372.000,1.000,252.000,5.000,0
"07/08/06","10:04:38","AMMA06",34012.000,"cc",28305.811,6.00,2830.581,1,6,0.100,19941.000,0.200,11342.000,0.300,2064.000,0.500,422.000,1.000,243.000,5.000,0
"07/08/06","10:04:44","AMMA06",33595.000,"cc",28332.459,6.00,2833.246,1,6,0.100,19776.000,0.200,11218.000,0.300,2024.000,0.500,369.000,1.000,208.000,5.000,0
"07/08/06","10:04:50","AMMA06",34394.000,"cc",28282.119,6.00,2828.212,1,6,0.100,20287.000,0.200,11317.000,0.300,2095.000,0.500,441.000,1.000,254.000,5.000,0
"07/08/06","10:04:56","AMMA06",34201.000,"cc",28346.949,6.00,2834.695,1,6,0.100,20252.000,0.200,11223.000,0.300,2044.000,0.500,427.000,1.000,255.000,5.000,0
"07/08/06","10:05:02","AMMA06",34291.000,"cc",28321.299,6.00,2832.130,1,6,0.100,20339.000,0.200,11287.000,0.300,2010.000,0.500,408.000,1.000,247.000,5.000,0
"07/08/06","10:05:08","AMMA06",35765.000,"cc",28330.184,6.00,2833.019,1,6,0.100,20739.000,0.200,11660.000,0.300,2356.000,0.500,663.000,1.000,347.000,5.000,0
"07/08/06","10:05:14","AMMA06",34737.000,"cc",28280.125,6.00,2828.013,1,6,0.100,20413.000,0.200,11402.000,0.300,2202.000,0.500,489.000,1.000,231.000,5.000,0
"07/08/06","10:05:20","AMMA06",34252.000,"cc",28344.801,6.00,2834.480,1,6,0.100,20192.000,0.200,11211.000,0.300,2118.000,0.500,476.000,1.000,255.000,5.000,0
"07/08/06","10:05:26","AMMA06",34545.000,"cc",28308.307,6.00,2830.831,1,6,0.100,20382.000,0.200,11313.000,0.300,2075.000,0.500,521.000,1.000,254.000,5.000,0
"07/08/06","10:05:32","AMMA06",35593.000,"cc",28320.133,6.00,2832.013,1,6,0.100,20738.000,0.200,11646.000,0.300,2291.000,0.500,605.000,1.000,313.000,5.000,0
"07/08/06","10:05:38","AMMA06",34854.000,"cc",28295.703,6.00,2829.571,1,6,0.100,20511.000,0.200,11497.000,0.300,2129.000,0.500,491.000,1.000,226.000,5.000,0
"07/08/06","10:05:44","AMMA06",34166.000,"cc",28320.918,6.00,2832.092,1,6,0.100,20206.000,0.200,11209.000,0.300,2079.000,0.500,437.000,1.000,235.000,5.000,0
"07/08/06","10:05:50","AMMA06",34319.000,"cc",28302.100,6.00,2830.210,1,6,0.100,20257.000,0.200,11292.000,0.300,2113.000,0.500,435.000,1.000,222.000,5.000,0
"07/08/06","10:05:56","AMMA06",36312.000,"cc",28343.402,6.00,2834.340,1,6,0.100,20784.000,0.200,11959.000,0.300,2514.000,0.500,728.000,1.000,327.000,5.000,0
"07/08/06","10:06:02","AMMA06",37581.000,"cc",28306.240,6.00,2830.624,1,6,0.100,21476.000,0.200,12046.000,0.300,2777.000,0.500,889.000,1.000,393.000,5.000,0
"07/08/06","10:06:08","AMMA06",35352.000,"cc",28288.305,6.00,2828.831,1,6,0.100,20547.000,0.200,11734.000,0.300,2295.000,0.500,529.000,1.000,247.000,5.000,0
"07/08/06","10:06:14","AMMA06",35093.000,"cc",28346.063,6.00,2834.606,1,6,0.100,20524.000,0.200,11718.000,0.300,2135.000,0.500,480.000,1.000,236.000,5.000,0
"07/08/06","10:06:20","AMMA06",34138.000,"cc",28306.152,6.00,2830.616,1,6,0.100,20220.000,0.200,11311.000,0.300,2021.000,0.500,387.000,1.000,199.000,5.000,0
"07/08/06","10:06:26","AMMA06",33733.000,"cc",28349.959,6.00,2834.996,1,6,0.100,19886.000,0.200,11306.000,0.300,1972.000,0.500,351.000,1.000,218.000,5.000,0
"07/08/06","10:06:32","AMMA06",36357.000,"cc",28266.854,6.00,2826.686,1,6,0.100,20873.000,0.200,11893.000,0.300,2584.000,0.500,660.000,1.000,347.000,5.000,0
"07/08/06","10:06:38","AMMA06",34530.000,"cc",28358.529,6.00,2835.853,1,6,0.100,20030.000,0.200,11670.000,0.300,2153.000,0.500,451.000,1.000,226.000,5.000,0
"07/08/06","10:06:44","AMMA06",36203.000,"cc",28293.766,6.00,2829.377,1,6,0.100,20751.000,0.200,12055.000,0.300,2470.000,0.500,610.000,1.000,317.000,5.000,0
"07/08/06","10:06:50","AMMA06",36624.000,"cc",28304.322,6.00,2830.432,1,6,0.100,21256.000,0.200,11949.000,0.300,2521.000,0.500,588.000,1.000,310.000,5.000,0
"07/08/06","10:06:56","AMMA06",35016.000,"cc",28328.621,6.00,2832.862,1,6,0.100,20282.000,0.200,11780.000,0.300,2184.000,0.500,476.000,1.000,294.000,5.000,0
"07/08/06","10:07:02","AMMA06",35059.000,"cc",28307.049,6.00,2830.705,1,6,0.100,20441.000,0.200,11718.000,0.300,2220.000,0.500,426.000,1.000,254.000,5.000,0
"07/08/06","10:07:08","AMMA06",36253.000,"cc",28281.063,6.00,2828.106,1,6,0.100,20962.000,0.200,11959.000,0.300,2418.000,0.500,598.000,1.000,316.000,5.000,0
"07/08/06","10:07:14","AMMA06",36282.000,"cc",28330.104,6.00,2833.011,1,6,0.100,20804.000,0.200,12054.000,0.300,2485.000,0.500,632.000,1.000,307.000,5.000,0
"07/08/06","10:07:20","AMMA06",37988.000,"cc",28375.816,6.00,2837.582,1,6,0.100,21466.000,0.200,12423.000,0.300,2896.000,0.500,802.000,1.000,401.000,5.000,0
"07/08/06","10:07:26","AMMA06",37561.000,"cc",28284.301,6.00,2828.430,1,6,0.100,21353.000,0.200,12325.000,0.300,2710.000,0.500,813.000,1.000,360.000,5.000,0
"07/08/06","10:07:32","AMMA06",35475.000,"cc",28315.488,6.00,2831.549,1,6,0.100,20520.000,0.200,11894.000,0.300,2270.000,0.500,529.000,1.000,262.000,5.000,0
"07/08/06","10:07:38","AMMA06",36312.000,"cc",28339.111,6.00,2833.911,1,6,0.100,20592.000,0.200,12051.000,0.300,2600.000,0.500,712.000,1.000,357.000,5.000,0
"07/08/06","10:07:44","AMMA06",36466.000,"cc",28327.734,6.00,2832.774,1,6,0.100,20997.000,0.200,11988.000,0.300,2601.000,0.500,577.000,1.000,303.000,5.000,0
"07/08/06","10:07:50","AMMA06",34172.000,"cc",28320.918,6.00,2832.092,1,6,0.100,20063.000,0.200,11519.000,0.300,2030.000,0.500,360.000,1.000,200.000,5.000,0
"07/08/06","10:07:56","AMMA06",34932.000,"cc",28284.158,6.00,2828.416,1,6,0.100,20317.000,0.200,11758.000,0.300,2132.000,0.500,483.000,1.000,242.000,5.000,0
"07/08/06","10:08:02","AMMA06",35024.000,"cc",28368.279,6.00,2836.828,1,6,0.100,20149.000,0.200,11947.000,0.300,2165.000,0.500,506.000,1.000,257.000,5.000,0
"07/08/06","10:08:08","AMMA06",34800.000,"cc",28334.443,6.00,2833.445,1,6,0.100,19988.000,0.200,11859.000,0.300,2203.000,0.500,498.000,1.000,252.000,5.000,0
"07/08/06","10:08:14","AMMA06",34597.000,"cc",28325.498,6.00,2832.550,1,6,0.100,19970.000,0.200,11562.000,0.300,2293.000,0.500,533.000,1.000,239.000,5.000,0
"07/08/06","10:08:20","AMMA06",34796.000,"cc",28294.506,6.00,2829.451,1,6,0.100,20000.000,0.200,11794.000,0.300,2250.000,0.500,499.000,1.000,253.000,5.000,0
"07/08/06","10:08:26","AMMA06",34235.000,"cc",28291.734,6.00,2829.174,1,6,0.100,19849.000,0.200,11592.000,0.300,2129.000,0.500,425.000,1.000,240.000,5.000,0
"07/08/06","10:08:32","AMMA06",34792.000,"cc",28258.561,6.00,2825.856,1,6,0.100,20122.000,0.200,11706.000,0.300,2234.000,0.500,482.000,1.000,248.000,5.000,0
"07/08/06","10:08:38","AMMA06",35143.000,"cc",28307.779,6.00,2830.778,1,6,0.100,20241.000,0.200,11809.000,0.300,2296.000,0.500,507.000,1.000,290.000,5.000,0
"07/08/06","10:08:44","AMMA06",35555.000,"cc",28333.525,6.00,2833.353,1,6,0.100,20400.000,0.200,11904.000,0.300,2344.000,0.500,623.000,1.000,284.000,5.000,0
"07/08/06","10:08:50","AMMA06",35022.000,"cc",28349.127,6.00,2834.913,1,6,0.100,20197.000,0.200,11795.000,0.300,2311.000,0.500,471.000,1.000,248.000,5.000,0
"07/08/06","10:08:56","AMMA06",34225.000,"cc",28335.293,6.00,2833.530,1,6,0.100,19789.000,0.200,11658.000,0.300,2095.000,0.500,407.000,1.000,276.000,5.000,0
"07/08/06","10:09:02","AMMA06",34370.000,"cc",28328.529,6.00,2832.853,1,6,0.100,19698.000,0.200,11803.000,0.300,2206.000,0.500,421.000,1.000,242.000,5.000,0
"07/08/06","10:09:08","AMMA06",35175.000,"cc",28288.998,6.00,2828.900,1,6,0.100,20372.000,0.200,11710.000,0.300,2326.000,0.500,527.000,1.000,240.000,5.000,0
"07/08/06","10:09:14","AMMA06",34682.000,"cc",28307.057,6.00,2830.706,1,6,0.100,20038.000,0.200,11746.000,0.300,2207.000,0.500,462.000,1.000,228.000,5.000,1.000
"07/08/06","10:09:20","AMMA06",35766.000,"cc",28302.957,6.00,2830.296,1,6,0.100,20415.000,0.200,11988.000,0.300,2449.000,0.500,626.000,1.000,288.000,5.000,0
"07/08/06","10:09:26","AMMA06",39311.000,"cc",28318.740,6.00,2831.874,1,6,0.100,21831.000,0.200,12866.000,0.300,3127.000,0.500,1029.000,1.000,458.000,5.000,0
"07/08/06","10:09:32","AMMA06",36981.000,"cc",28319.264,6.00,2831.927,1,6,0.100,21110.000,0.200,12296.000,0.300,2615.000,0.500,648.000,1.000,312.000,5.000,0
"07/08/06","10:09:38","AMMA06",35052.000,"cc",28312.529,6.00,2831.253,1,6,0.100,20190.000,0.200,11889.000,0.300,2232.000,0.500,503.000,1.000,238.000,5.000,0
"07/08/06","10:09:44","AMMA06",35224.000,"cc",28286.627,6.00,2828.663,1,6,0.100,20430.000,0.200,11809.000,0.300,2177.000,0.500,524.000,1.000,284.000,5.000,0
"07/08/06","10:09:50","AMMA06",34652.000,"cc",28325.055,6.00,2832.506,1,6,0.100,20200.000,0.200,11698.000,0.300,2082.000,0.500,435.000,1.000,237.000,5.000,0
"07/08/06","10:09:56","AMMA06",35479.000,"cc",28338.455,6.00,2833.846,1,6,0.100,20799.000,0.200,11788.000,0.300,2145.000,0.500,479.000,1.000,268.000,5.000,0
"07/08/06","10:10:02","AMMA06",34809.000,"cc",28293.191,6.00,2829.319,1,6,0.100,20530.000,0.200,11570.000,0.300,2056.000,0.500,441.000,1.000,212.000,5.000,0
"07/08/06","10:10:08","AMMA06",35147.000,"cc",28364.031,6.00,2836.403,1,6,0.100,20388.000,0.200,11655.000,0.300,2354.000,0.500,492.000,1.000,258.000,5.000,0
"07/08/06","10:10:14","AMMA06",36840.000,"cc",28341.590,6.00,2834.159,1,6,0.100,21012.000,0.200,12103.000,0.300,2629.000,0.500,751.000,1.000,345.000,5.000,0
"07/08/06","10:10:20","AMMA06",36195.000,"cc",28299.213,6.00,2829.921,1,6,0.100,20870.000,0.200,11864.000,0.300,2461.000,0.500,662.000,1.000,338.000,5.000,0
"07/08/06","10:10:26","AMMA06",36341.000,"cc",28330.467,6.00,2833.047,1,6,0.100,20877.000,0.200,11983.000,0.300,2447.000,0.500,737.000,1.000,297.000,5.000,0
"07/08/06","10:10:32","AMMA06",36813.000,"cc",28291.707,6.00,2829.171,1,6,0.100,21642.000,0.200,11865.000,0.300,2423.000,0.500,556.000,1.000,327.000,5.000,0
"07/08/06","10:10:38","AMMA06",34826.000,"cc",28325.262,6.00,2832.526,1,6,0.100,20562.000,0.200,11472.000,0.300,2117.000,0.500,446.000,1.000,229.000,5.000,0
"07/08/06","10:10:44","AMMA06",35119.000,"cc",28332.291,6.00,2833.229,1,6,0.100,20423.000,0.200,11602.000,0.300,2262.000,0.500,549.000,1.000,283.000,5.000,0
"07/08/06","10:10:50","AMMA06",35056.000,"cc",28301.322,6.00,2830.132,1,6,0.100,20497.000,0.200,11557.000,0.300,2281.000,0.500,468.000,1.000,253.000,5.000,0
"07/08/06","10:10:56","AMMA06",36135.000,"cc",28319.537,6.00,2831.954,1,6,0.100,20986.000,0.200,11909.000,0.300,2345.000,0.500,608.000,1.000,287.000,5.000,0
"07/08/06","10:11:02","AMMA06",35995.000,"cc",28350.049,6.00,2835.005,1,6,0.100,20790.000,0.200,11951.000,0.300,2363.000,0.500,604.000,1.000,287.000,5.000,0
"07/08/06","10:11:08","AMMA06",35997.000,"cc",28290.348,6.00,2829.035,1,6,0.100,21090.000,0.200,11790.000,0.300,2308.000,0.500,530.000,1.000,279.000,5.000,0
"07/08/06","10:11:14","AMMA06",35563.000,"cc",28288.014,6.00,2828.802,1,6,0.100,20662.000,0.200,11901.000,0.300,2218.000,0.500,496.000,1.000,286.000,5.000,0
"07/08/06","10:11:20","AMMA06",34540.000,"cc",28306.668,6.00,2830.667,1,6,0.100,20197.000,0.200,11630.000,0.300,2059.000,0.500,427.000,1.000,227.000,5.000,0
"07/08/06","10:11:26","AMMA06",35304.000,"cc",28352.252,6.00,2835.225,1,6,0.100,20700.000,0.200,11532.000,0.300,2321.000,0.500,469.000,1.000,282.000,5.000,0
"07/08/06","10:11:32","AMMA06",35518.000,"cc",28305.984,6.00,2830.599,1,6,0.100,20588.000,0.200,11858.000,0.300,2251.000,0.500,566.000,1.000,255.000,5.000,0
"07/08/06","10:11:38","AMMA06",35844.000,"cc",28376.754,6.00,2837.676,1,6,0.100,20806.000,0.200,11933.000,0.300,2307.000,0.500,552.000,1.000,246.000,5.000,0
"07/08/06","10:11:44","AMMA06",36105.000,"cc",28248.162,6.00,2824.816,1,6,0.100,20883.000,0.200,11868.000,0.300,2411.000,0.500,627.000,1.000,316.000,5.000,0
"07/08/06","10:11:50","AMMA06",35570.000,"cc",28309.283,6.00,2830.929,1,6,0.100,20712.000,0.200,11783.000,0.300,2286.000,0.500,503.000,1.000,286.000,5.000,0
"07/08/06","10:11:56","AMMA06",36503.000,"cc",28333.770,6.00,2833.377,1,6,0.100,21219.000,0.200,11858.000,0.300,2505.000,0.500,653.000,1.000,268.000,5.000,0
"07/08/06","10:12:02","AMMA06",36428.000,"cc",28295.668,6.00,2829.567,1,6,0.100,21063.000,0.200,11987.000,0.300,2469.000,0.500,601.000,1.000,308.000,5.000,0
"07/08/06","10:12:08","AMMA06",36979.000,"cc",28297.832,6.00,2829.783,1,6,0.100,21265.000,0.200,11996.000,0.300,2681.000,0.500,725.000,1.000,312.000,5.000,0
"07/08/06","10:12:14","AMMA06",35242.000,"cc",28326.918,6.00,2832.692,1,6,0.100,20532.000,0.200,11739.000,0.300,2267.000,0.500,443.000,1.000,261.000,5.000,0
"07/08/06","10:12:20","AMMA06",33869.000,"cc",28346.512,6.00,2834.651,1,6,0.100,19760.000,0.200,11437.000,0.300,2062.000,0.500,378.000,1.000,232.000,5.000,0
"07/08/06","10:12:26","AMMA06",34784.000,"cc",28329.580,6.00,2832.958,1,6,0.100,20324.000,0.200,11585.000,0.300,2134.000,0.500,494.000,1.000,247.000,5.000,0
"07/08/06","10:12:32","AMMA06",34959.000,"cc",28319.213,6.00,2831.921,1,6,0.100,20303.000,0.200,11651.000,0.300,2214.000,0.500,527.000,1.000,264.000,5.000,0
"07/08/06","10:12:38","AMMA06",34895.000,"cc",28288.588,6.00,2828.859,1,6,0.100,20454.000,0.200,11743.000,0.300,2067.000,0.500,414.000,1.000,217.000,5.000,0
"07/08/06","10:12:44","AMMA06",34733.000,"cc",28297.533,6.00,2829.753,1,6,0.100,20353.000,0.200,11702.000,0.300,2047.000,0.500,400.000,1.000,231.000,5.000,0
"07/08/06","10:12:50","AMMA06",35770.000,"cc",28383.053,6.00,2838.305,1,6,0.100,20654.000,0.200,11906.000,0.300,2319.000,0.500,601.000,1.000,290.000,5.000,0
"07/08/06","10:12:56","AMMA06",35702.000,"cc",28273.373,6.00,2827.337,1,6,0.100,20667.000,0.200,11908.000,0.300,2269.000,0.500,576.000,1.000,282.000,5.000,0
"07/08/06","10:13:02","AMMA06",35105.000,"cc",28344.760,6.00,2834.476,1,6,0.100,20472.000,0.200,11881.000,0.300,2149.000,0.500,388.000,1.000,215.000,5.000,0
"07/08/06","10:13:08","AMMA06",34442.000,"cc",28243.828,6.00,2824.383,1,6,0.100,20033.000,0.200,11765.000,0.300,1985.000,0.500,431.000,1.000,228.000,5.000,0
"07/08/06","10:13:14","AMMA06",34307.000,"cc",28307.359,6.00,2830.736,1,6,0.100,20133.000,0.200,11452.000,0.300,2105.000,0.500,409.000,1.000,208.000,5.000,0
"07/08/06","10:13:20","AMMA06",34192.000,"cc",28298.691,6.00,2829.869,1,6,0.100,20227.000,0.200,11287.000,0.300,2049.000,0.500,395.000,1.000,234.000,5.000,0
"07/08/06","10:13:26","AMMA06",34022.000,"cc",28327.801,6.00,2832.780,1,6,0.100,19945.000,0.200,11420.000,0.300,2060.000,0.500,361.000,1.000,236.000,5.000,0
"07/08/06","10:13:32","AMMA06",33682.000,"cc",28340.797,6.00,2834.080,1,6,0.100,19774.000,0.200,11213.000,0.300,2083.000,0.500,383.000,1.000,229.000,5.000,0
"07/08/06","10:13:38","AMMA06",34057.000,"cc",28289.340,6.00,2828.934,1,6,0.100,20120.000,0.200,11327.000,0.300,1994.000,0.500,400.000,1.000,216.000,5.000,0
"07/08/06","10:13:44","AMMA06",34233.000,"cc",28340.934,6.00,2834.094,1,6,0.100,20181.000,0.200,11449.000,0.300,2041.000,0.500,355.000,1.000,207.000,5.000,0
"07/08/06","10:13:50","AMMA06",34231.000,"cc",28355.543,6.00,2835.554,1,6,0.100,20168.000,0.200,11452.000,0.300,2018.000,0.500,383.000,1.000,210.000,5.000,0
"07/08/06","10:13:56","AMMA06",33863.000,"cc",28336.049,6.00,2833.605,1,6,0.100,19921.000,0.200,11342.000,0.300,2020.000,0.500,379.000,1.000,201.000,5.000,0
"07/08/06","10:14:02","AMMA06",34184.000,"cc",28305.731,6.00,2830.573,1,6,0.100,20079.000,0.200,11421.000,0.300,2047.000,0.500,397.000,1.000,240.000,5.000,0
"07/08/06","10:14:08","AMMA06",34150.000,"cc",28282.789,6.00,2828.279,1,6,0.100,20237.000,0.200,11321.000,0.300,1987.000,0.500,387.000,1.000,218.000,5.000,0
"07/08/06","10:14:14","AMMA06",34394.000,"cc",28333.563,6.00,2833.356,1,6,0.100,20047.000,0.200,11517.000,0.300,2151.000,0.500,434.000,1.000,245.000,5.000,0